When you browse on this site, cookies collect data to enhance your experience and personalize the content and advertising you see.
Visit our Privacy Policy to learn more. By continuing to use the site, you agree to this use of cookies and data.
  • In Lithuania
  • List of Countries
  • For 7 days
  • Water Temperature
  • Satellite Maps
  • Weather Map
  • Weather Widgets
  • user-avatar
    Login

    Hourly Weather Uige

    Today, 22 July, Monday

    Time Temperature Precipitation Wind Pressure Humidity
    00:00 +19°C° 0 mm 1 mps 692 mmHg 69%
    01:00 +18°C° 0 mm 1 mps 692 mmHg 78%
    02:00 +16°C° 0 mm 1 mps 692 mmHg 83%
    03:00 +16°C° 0 mm 1 mps 692 mmHg 88%
    04:00 +15°C° 0 mm 1 mps 692 mmHg 92%
    05:00 +16°C° 0 mm 1 mps 692 mmHg 92%
    06:00 +16°C° 0 mm 1 mps 692 mmHg 91%
    07:00 +18°C° 0 mm 1 mps 692 mmHg 90%
    08:00 +21°C° 0 mm 1 mps 693 mmHg 80%
    09:00 +23°C° 0 mm 1 mps 694 mmHg 69%
    10:00 +25°C° 0 mm 1 mps 695 mmHg 58%
    11:00 +28°C° 0 mm 1 mps 694 mmHg 47%
    12:00 +31°C° 0 mm 1 mps 693 mmHg 37%
    13:00 +34°C° 0 mm 1 mps 693 mmHg 31%
    14:00 +34°C° 0 mm 1 mps 692 mmHg 30%
    15:00 +34°C° 0 mm 2 mps 692 mmHg 29%
    16:00 +34°C° 0 mm 2 mps 691 mmHg 28%
    17:00 +30°C° 0 mm 2 mps 691 mmHg 37%
    18:00 +27°C° 0 mm 1 mps 691 mmHg 47%
    19:00 +24°C° 0 mm 1 mps 691 mmHg 56%
    20:00 +23°C° 0 mm 1 mps 691 mmHg 61%
    21:00 +22°C° 0 mm 1 mps 692 mmHg 65%
    22:00 +21°C° 0 mm 1 mps 692 mmHg 69%
    23:00 +20°C° 0 mm 1 mps 692 mmHg 76%

    Tomorrow, 23 July, Tuesday

    Time Temperature Precipitation Wind Pressure Humidity
    00:00 +18°C° 0 mm 1 mps 692 mmHg 82%
    01:00 +15°C° 0 mm 0 mps 691 mmHg 88%
    02:00 +16°C° 0 mm 1 mps 691 mmHg 91%
    03:00 +16°C° 0 mm 1 mps 691 mmHg 94%
    04:00 +15°C° 0 mm 1 mps 691 mmHg 96%
    05:00 +16°C° 0 mm 1 mps 691 mmHg 95%
    06:00 +16°C° 0 mm 1 mps 692 mmHg 93%
    07:00 +18°C° 0 mm 1 mps 692 mmHg 92%
    08:00 +21°C° 0 mm 1 mps 693 mmHg 76%
    09:00 +25°C° 0 mm 1 mps 694 mmHg 59%
    10:00 +29°C° 0 mm 1 mps 694 mmHg 43%
    11:00 +31°C° 0 mm 1 mps 694 mmHg 36%
    12:00 +34°C° 0 mm 1 mps 694 mmHg 28%
    13:00 +36°C° 0 mm 1 mps 693 mmHg 21%
    14:00 +36°C° 0 mm 1 mps 692 mmHg 21%
    15:00 +36°C° 0 mm 2 mps 692 mmHg 20%
    16:00 +36°C° 0 mm 2 mps 691 mmHg 20%
    17:00 +32°C° 0 mm 2 mps 691 mmHg 27%
    18:00 +28°C° 0 mm 1 mps 691 mmHg 33%
    19:00 +25°C° 0 mm 1 mps 690 mmHg 40%
    20:00 +24°C° 0 mm 1 mps 691 mmHg 44%
    21:00 +23°C° 0 mm 1 mps 691 mmHg 48%
    22:00 +22°C° 0 mm 1 mps 691 mmHg 52%
    23:00 +21°C° 0 mm 1 mps 691 mmHg 56%

    Day after tomorrow, 24 July, Wednesday

    Time Temperature Precipitation Wind Pressure Humidity
    00:00 +20°C° 0 mm 1 mps 690 mmHg 61%
    01:00 +19°C° 0 mm 1 mps 690 mmHg 66%
    02:00 +18°C° 0 mm 1 mps 690 mmHg 69%
    03:00 +16°C° 0 mm 0 mps 689 mmHg 71%
    04:00 +15°C° 0 mm 0 mps 689 mmHg 74%
    05:00 +16°C° 0 mm 0 mps 690 mmHg 72%
    06:00 +16°C° 0 mm 0 mps 690 mmHg 70%
    07:00 +17°C° 0 mm 0 mps 691 mmHg 68%
    08:00 +22°C° 0 mm 0 mps 692 mmHg 54%
    09:00 +27°C° 0 mm 0 mps 693 mmHg 40%
    10:00 +32°C° 0 mm 0 mps 694 mmHg 26%
    11:00 +35°C° 0 mm 1 mps 693 mmHg 22%
    12:00 +36°C° 0 mm 1 mps 693 mmHg 17%
    13:00 +39°C° 0 mm 1 mps 692 mmHg 13%
    14:00 +38°C° 0 mm 2 mps 691 mmHg 13%
    15:00 +38°C° 0 mm 2 mps 691 mmHg 13%
    16:00 +37°C° 0 mm 2 mps 690 mmHg 13%
    17:00 +34°C° 0 mm 2 mps 690 mmHg 20%
    18:00 +29°C° 0 mm 1 mps 690 mmHg 27%
    19:00 +25°C° 0 mm 1 mps 690 mmHg 35%
    20:00 +24°C° 0 mm 1 mps 691 mmHg 43%
    21:00 +22°C° 0 mm 1 mps 691 mmHg 51%
    22:00 +21°C° 0 mm 1 mps 691 mmHg 60%
    23:00 +19°C° 0 mm 1 mps 691 mmHg 68%

    25 July, Thursday

    Time Temperature Precipitation Wind Pressure Humidity
    00:00 +18°C° 0 mm 1 mps 691 mmHg 77%
    01:00 +15°C° 0 mm 0 mps 691 mmHg 85%
    02:00 +15°C° 0 mm 0 mps 691 mmHg 88%
    03:00 +14°C° 0 mm 0 mps 690 mmHg 90%
    04:00 +14°C° 0 mm 0 mps 690 mmHg 93%
    05:00 +15°C° 0 mm 1 mps 691 mmHg 91%
    06:00 +15°C° 0 mm 1 mps 691 mmHg 90%
    07:00 +15°C° 0 mm 1 mps 692 mmHg 89%
    08:00 +20°C° 0 mm 1 mps 693 mmHg 71%
    09:00 +25°C° 0 mm 1 mps 694 mmHg 54%
    10:00 +29°C° 0 mm 1 mps 694 mmHg 37%
    11:00 +31°C° 0 mm 2 mps 694 mmHg 31%
    12:00 +32°C° 0 mm 2 mps 693 mmHg 26%
    13:00 +35°C° 0 mm 2 mps 693 mmHg 21%
    14:00 +35°C° 0 mm 2 mps 692 mmHg 21%
    15:00 +35°C° 0 mm 2 mps 691 mmHg 20%
    16:00 +35°C° 0 mm 3 mps 691 mmHg 20%
    17:00 +31°C° 0 mm 2 mps 691 mmHg 26%
    18:00 +28°C° 0 mm 2 mps 691 mmHg 32%
    19:00 +25°C° 0 mm 1 mps 691 mmHg 39%
    20:00 +23°C° 0 mm 1 mps 691 mmHg 46%
    21:00 +22°C° 0 mm 1 mps 691 mmHg 54%
    22:00 +20°C° 0 mm 1 mps 692 mmHg 61%
    23:00 +19°C° 0 mm 1 mps 691 mmHg 69%

    26 July, Friday

    Time Temperature Precipitation Wind Pressure Humidity
    00:00 +18°C° 0 mm 1 mps 691 mmHg 77%
    01:00 +15°C° 0 mm 1 mps 691 mmHg 85%
    02:00 +15°C° 0 mm 1 mps 690 mmHg 89%
    03:00 +14°C° 0 mm 1 mps 690 mmHg 92%
    04:00 +14°C° 0 mm 1 mps 690 mmHg 96%
    05:00 +15°C° 0 mm 1 mps 691 mmHg 94%
    06:00 +15°C° 0 mm 1 mps 691 mmHg 92%
    07:00 +16°C° 0 mm 1 mps 692 mmHg 90%
    08:00 +21°C° 0 mm 1 mps 693 mmHg 72%
    09:00 +26°C° 0 mm 1 mps 693 mmHg 54%
    10:00 +30°C° 0 mm 1 mps 694 mmHg 35%
    11:00 +32°C° 0 mm 1 mps 693 mmHg 30%
    12:00 +34°C° 0 mm 1 mps 693 mmHg 24%
    13:00 +36°C° 0 mm 1 mps 692 mmHg 18%
    14:00 +37°C° 0 mm 2 mps 692 mmHg 18%
    15:00 +37°C° 0 mm 2 mps 691 mmHg 18%
    16:00 +37°C° 0 mm 2 mps 691 mmHg 17%
    17:00 +32°C° 0 mm 2 mps 690 mmHg 26%
    18:00 +28°C° 0 mm 2 mps 690 mmHg 34%
    19:00 +25°C° 0 mm 1 mps 690 mmHg 43%
    20:00 +23°C° 0 mm 1 mps 691 mmHg 52%
    21:00 +21°C° 0 mm 1 mps 691 mmHg 62%
    22:00 +19°C° 0 mm 1 mps 691 mmHg 71%
    23:00 +18°C° 0 mm 1 mps 691 mmHg 80%

    27 July, Saturday

    Time Temperature Precipitation Wind Pressure Humidity
    00:00 +16°C° 0 mm 1 mps 691 mmHg 88%
    01:00 +15°C° 0 mm 1 mps 691 mmHg 96%
    02:00 +15°C° 0 mm 1 mps 691 mmHg 95%
    03:00 +16°C° 0 mm 1 mps 691 mmHg 93%
    04:00 +16°C° 0 mm 1 mps 691 mmHg 91%
    05:00 +16°C° 0 mm 1 mps 692 mmHg 90%
    06:00 +18°C° 0 mm 1 mps 692 mmHg 88%
    07:00 +18°C° 0 mm 1 mps 692 mmHg 87%
    08:00 +21°C° 0 mm 1 mps 693 mmHg 72%
    09:00 +25°C° 0 mm 1 mps 694 mmHg 57%
    10:00 +27°C° 0 mm 0 mps 694 mmHg 43%
    11:00 +31°C° 0 mm 1 mps 693 mmHg 36%
    12:00 +33°C° 0 mm 1 mps 693 mmHg 29%
    13:00 +35°C° 0 mm 1 mps 692 mmHg 22%
    14:00 +35°C° 0 mm 1 mps 692 mmHg 21%
    15:00 +36°C° 0 mm 2 mps 691 mmHg 20%
    16:00 +36°C° 0 mm 2 mps 691 mmHg 19%
    17:00 +32°C° 0 mm 2 mps 691 mmHg 27%
    18:00 +28°C° 0 mm 1 mps 690 mmHg 34%
    19:00 +25°C° 0 mm 1 mps 690 mmHg 42%
    20:00 +23°C° 0 mm 1 mps 691 mmHg 49%
    21:00 +22°C° 0 mm 1 mps 691 mmHg 55%
    22:00 +20°C° 0 mm 1 mps 691 mmHg 62%
    23:00 +19°C° 0 mm 1 mps 691 mmHg 72%
    Show more